[[{"header":{"parameterUnit":"m.s-1","parameterCategory":1,"la1":30.2991,"la2":30.254,"lo1":-89.0895,"lo2":-89.0444,"dy":0.0017,"dx":0.0017,"nx":28,"ny":28,"refTime":"2024-07-08T21:00:00:Z","depth":0,"parameterNumber":2,"parameterNumberName":"U-component_of_WINDS"},"data":[0,0,0,0,0,0,0,0,0,0,0,0,0,0,0,0,0,0,0,0,0,0,0,0,0,0,0,0,0,0,0,0,0,0,0,0,0,0,0,0,0,0,0,0,0,0,0,0,0,0,0,0,0,0,0,0,0,0,2.3205,2.3205,0,2.3257,2.3258,2.3259,2.3266,2.3265,2.3265,2.3264,2.3318,2.332,2.3322,0,0,0,0,0,0,0,0,0,0,0,0,0,2.3111,2.3112,2.3205,2.3205,2.3206,2.3257,2.3258,2.3259,2.3266,2.3265,2.3265,2.3264,2.3318,2.332,2.3322,0,0,0,0,0,0,0,0,0,0,0,0,0,2.3156,2.3113,2.3205,2.3216,2.3217,2.3257,2.3258,2.3259,2.3266,2.3265,2.3265,2.3264,2.3317,2.332,2.3322,2.3355,0,0,2.3331,2.3332,0,0,0,0,0,0,0,0,2.3154,2.316,2.3214,2.3215,2.3217,2.3254,2.3245,2.3291,2.3266,2.3248,2.3264,2.3264,2.3298,2.3302,2.3313,2.3357,2.336,2.3331,2.3333,2.3334,2.3335,0,0,0,0,0,0,0,2.315,2.3157,2.3226,2.3214,2.3216,2.3218,2.3224,2.3253,2.3276,2.3249,2.325,2.3256,2.3298,2.3311,2.3315,2.336,2.3331,2.3334,2.3336,2.3337,2.3434,2.3434,0,0,0,0,0,0,2.3145,2.3155,2.3224,2.3227,2.3183,2.3221,2.3227,2.3243,2.3276,2.328,2.3257,2.3256,2.3306,2.3311,2.3317,2.3357,2.3334,2.3337,2.3339,2.3433,2.3434,2.3435,0,0,0,0,0,0,2.3143,2.3151,2.3222,2.3191,2.32,2.3223,2.3241,2.3245,2.3257,2.3281,2.3285,2.3265,2.3306,2.3313,2.3345,2.3359,2.3338,2.3341,2.3432,2.3433,2.3434,2.3437,0,0,0,0,0,0,2.314,2.3151,2.3163,2.3191,2.3202,2.3249,2.3242,2.3246,2.3262,2.3262,2.329,2.3294,2.3306,2.3341,2.3348,2.3362,2.3343,2.3431,2.3432,2.3434,2.3435,2.3438,2.344,0,0,0,0,0,2.3137,2.3161,2.3164,2.3172,2.3218,2.325,2.3256,2.3269,2.3263,2.3275,2.3291,2.3293,2.3356,2.3344,2.3352,2.3367,2.343,2.3432,2.3434,2.3434,2.3437,2.344,0,0,0,0,0,0,2.3134,2.3165,2.3168,2.3202,2.3224,2.3251,2.3268,2.3271,2.3295,2.3294,2.3308,2.3315,2.3347,2.336,2.3347,2.34,2.3392,2.3396,2.339,2.3393,2.3395,2.3391,2.3345,0,0,0,0,0,2.3137,2.3161,2.3187,2.3215,2.3225,2.3245,2.3259,2.3267,2.329,2.3299,2.3317,2.3339,2.3363,2.3379,2.3403,2.3438,2.3444,2.3452,2.3454,2.3456,2.3459,2.3478,2.3482,2.3441,2.3441,2.3441,0,0,2.3144,2.3164,2.3178,2.3215,2.3232,2.3256,2.3252,2.3278,2.3296,2.3302,2.3334,2.3348,2.3374,2.3407,2.3423,2.342,2.3472,2.3458,2.346,2.3462,2.3481,2.3484,2.3488,2.3442,2.3442,2.3442,0,0,2.3169,2.3187,2.3212,2.3229,2.3256,2.3269,2.3275,2.3302,2.3312,2.3344,2.3349,2.3371,2.3413,2.3431,2.3446,2.3478,2.3481,2.3485,2.3497,2.3516,2.3519,2.3522,2.3533,2.3537,2.3488,2.3488,2.3488,0,2.3174,2.3211,2.3224,2.325,2.3266,2.3273,2.3299,2.3315,2.3348,2.3359,2.3354,2.3408,2.3425,2.3463,2.3471,2.3483,2.349,2.3482,2.3517,2.352,2.3523,2.3534,2.3538,2.3489,2.3489,2.3489,2.3489,0,2.3216,2.3241,2.3258,2.329,2.3308,2.3333,2.335,2.3367,2.3374,2.3387,2.342,2.3441,2.347,2.3479,2.3486,2.3518,2.3516,2.3514,2.3506,2.3527,2.3538,2.3542,2.3489,2.3489,2.3489,2.3489,0,0,2.324,2.3279,2.3285,2.3299,2.3329,2.3349,2.3375,2.3403,2.3416,2.3439,2.3461,2.3497,2.3496,2.3512,2.3521,2.3538,2.3562,2.3534,2.3535,2.3538,2.3599,2.3599,2.3604,2.3564,2.3565,2.3566,2.3597,0,2.3268,2.3314,2.3327,2.3366,2.3389,2.3397,2.342,2.3441,2.3454,2.3476,2.3491,2.3515,2.3512,2.3522,2.3539,2.3555,2.3574,2.3553,2.3585,2.3586,2.3578,2.3609,2.361,2.3638,2.3601,2.3602,2.3602,0,2.3307,2.333,2.3371,2.3398,2.3409,2.3429,2.3455,2.3476,2.35,2.3509,2.3527,2.3535,2.3562,2.3554,2.3592,2.3577,2.3591,2.3601,2.3602,2.3605,2.3595,2.3613,2.3647,2.3651,2.3609,2.3608,2.3608,0,2.3319,2.3361,2.3391,2.3404,2.3436,2.345,2.3464,2.3487,2.3503,2.3527,2.3537,2.3564,2.3578,2.3599,2.3613,2.3605,2.365,2.3642,2.3658,2.3657,2.3666,2.3666,2.3703,2.3676,2.3676,2.3676,2.3676,0,2.3349,2.3374,2.3398,2.3416,2.3444,2.3459,2.3487,2.3501,2.3522,2.3543,2.3552,2.3572,2.359,2.3613,2.3625,2.3654,2.3661,2.3668,2.3671,2.3667,2.3666,2.3676,2.3674,2.3677,2.3677,2.3677,2.3676,0,2.3368,2.3385,2.3418,2.3446,2.3454,2.3473,2.3497,2.3516,2.3529,2.3557,2.3564,2.3585,2.3613,2.3629,2.3664,2.3672,2.3704,2.3706,2.3696,2.3697,2.3711,2.371,2.3756,2.3763,2.3732,2.3732,2.3732,0,2.3386,2.3405,2.3435,2.345,2.3465,2.3489,2.3505,2.3521,2.3538,2.3566,2.3581,2.3609,2.3632,2.3675,2.3694,2.372,2.3723,2.3737,2.3727,2.3722,2.3723,2.3721,2.3723,2.3739,2.3739,2.3739,2.3739,0,2.3415,2.3423,2.3446,2.3472,2.3492,2.3513,2.3535,2.3547,2.3566,2.3585,2.3612,2.363,2.3665,2.3693,2.3721,2.3736,2.3741,2.3743,2.3748,2.3744,2.3737,2.374,2.37,2.3741,2.3741,2.3741,2.3741,2.3741,2.3434,2.3451,2.3475,2.3501,2.3519,2.3539,2.3558,2.3574,2.3597,2.3627,2.3635,2.3664,2.3688,2.3726,2.3742,2.3765,2.3763,2.377,2.3771,2.3773,2.3773,2.3733,2.377,2.377,2.377,2.377,2.377,0,2.3463,2.3479,2.3503,2.3533,2.3553,2.3556,2.3581,2.3597,2.3623,2.3644,2.3667,2.3699,2.3726,2.3747,2.3774,2.3789,2.3792,2.3795,2.3794,2.3797,2.3773,2.3766,2.3792,2.3792,2.3792,2.3792,2.3792,2.3792,2.3481,2.3511,2.3521,2.356,2.3576,2.3604,2.3618,2.3636,2.3654,2.3689,2.3711,2.3725,2.3747,2.3776,2.3801,2.3806,2.3816,2.3819,2.3825,2.3802,2.3799,2.3797,2.379,2.3821,2.3821,2.3847,2.3847,2.3847]},{"header":{"parameterUnit":"m.s-1","parameterCategory":1,"la1":30.2991,"la2":30.254,"lo1":-89.0895,"lo2":-89.0444,"dy":0.0017,"dx":0.0017,"nx":28,"ny":28,"refTime":"2024-07-08T21:00:00:Z","depth":0,"parameterNumber":3,"parameterNumberName":"V-component_of_WINDS"},"data":[0,0,0,0,0,0,0,0,0,0,0,0,0,0,0,0,0,0,0,0,0,0,0,0,0,0,0,0,0,0,0,0,0,0,0,0,0,0,0,0,0,0,0,0,0,0,0,0,0,0,0,0,0,0,0,0,0,0,0.5283,0.5283,0,0.5256,0.5256,0.5256,0.526,0.5261,0.5261,0.5262,0.5231,0.523,0.5228,0,0,0,0,0,0,0,0,0,0,0,0,0,0.5334,0.5333,0.5283,0.5283,0.5282,0.5257,0.5256,0.5256,0.526,0.5261,0.5261,0.5262,0.5231,0.523,0.5228,0,0,0,0,0,0,0,0,0,0,0,0,0,0.531,0.5333,0.5283,0.5281,0.5281,0.5257,0.5256,0.5256,0.526,0.5261,0.5262,0.5262,0.5232,0.523,0.5228,0.5202,0,0,0.5222,0.5222,0,0,0,0,0,0,0,0,0.5311,0.5308,0.5282,0.5282,0.5281,0.5263,0.5263,0.5238,0.526,0.5268,0.5262,0.5263,0.5241,0.5238,0.5231,0.5201,0.52,0.5222,0.5221,0.522,0.522,0,0,0,0,0,0,0,0.5313,0.5309,0.5272,0.5282,0.5281,0.5281,0.5278,0.5258,0.525,0.5267,0.5268,0.5265,0.524,0.5233,0.5231,0.5199,0.5222,0.5221,0.5219,0.5219,0.5147,0.5146,0,0,0,0,0,0,0.5316,0.5311,0.5273,0.5272,0.5298,0.528,0.5277,0.5268,0.5251,0.5249,0.5264,0.5265,0.5236,0.5233,0.523,0.5199,0.522,0.5219,0.5217,0.5147,0.5146,0.5146,0,0,0,0,0,0,0.5317,0.5312,0.5274,0.5291,0.5286,0.5278,0.5268,0.5267,0.526,0.5248,0.5247,0.5258,0.5237,0.5232,0.521,0.5198,0.5218,0.5216,0.5148,0.5147,0.5146,0.5137,0,0,0,0,0,0,0.5318,0.5313,0.5304,0.5291,0.5286,0.5255,0.5267,0.5266,0.5257,0.5258,0.5243,0.5241,0.5237,0.5212,0.5208,0.5196,0.5215,0.5149,0.5148,0.5146,0.5138,0.5135,0.5133,0,0,0,0,0,0.532,0.5301,0.5303,0.5298,0.5274,0.5255,0.5251,0.5249,0.5256,0.5246,0.5239,0.5241,0.52,0.521,0.5205,0.5192,0.515,0.5148,0.5146,0.5139,0.5136,0.5133,0,0,0,0,0,0,0.5311,0.5299,0.5301,0.5278,0.5268,0.5256,0.5243,0.5245,0.5231,0.5233,0.5228,0.5225,0.5202,0.5194,0.5206,0.5166,0.5176,0.5173,0.5172,0.5169,0.5166,0.5169,0.5213,0,0,0,0,0,0.5306,0.5293,0.5283,0.5263,0.5258,0.5252,0.5243,0.5242,0.523,0.5225,0.5217,0.5204,0.5189,0.5178,0.5163,0.5137,0.5134,0.5126,0.5123,0.5121,0.5119,0.5105,0.5101,0.514,0.514,0.514,0,0,0.5296,0.5289,0.528,0.5261,0.5253,0.5238,0.5248,0.5231,0.522,0.5222,0.5201,0.5194,0.518,0.5156,0.5144,0.5149,0.5107,0.5119,0.5117,0.5116,0.5102,0.5099,0.5095,0.5139,0.5139,0.5139,0,0,0.5271,0.5264,0.5247,0.5239,0.5227,0.5223,0.5218,0.5206,0.5202,0.5181,0.5183,0.5168,0.5141,0.5132,0.5123,0.5095,0.5096,0.509,0.5077,0.5063,0.506,0.5057,0.5047,0.5044,0.5087,0.5087,0.5087,0,0.526,0.5239,0.5237,0.5221,0.5213,0.5216,0.5198,0.519,0.5173,0.5167,0.5172,0.5139,0.513,0.5103,0.5097,0.5089,0.5084,0.5091,0.5061,0.5058,0.5055,0.5046,0.5042,0.5086,0.5087,0.5087,0.5087,0,0.5226,0.5211,0.5199,0.5184,0.5174,0.5157,0.5153,0.5143,0.5142,0.5137,0.5115,0.5105,0.5088,0.5081,0.508,0.5054,0.5058,0.5062,0.5071,0.5051,0.5042,0.5038,0.5086,0.5086,0.5086,0.5086,0,0,0.5193,0.5179,0.5174,0.5168,0.5155,0.5143,0.5126,0.5111,0.5103,0.5091,0.5076,0.5054,0.5058,0.5048,0.5046,0.5034,0.5013,0.504,0.5039,0.5035,0.4984,0.4981,0.4977,0.5014,0.5013,0.5012,0.4985,0,0.5167,0.5139,0.5137,0.5111,0.5098,0.51,0.5086,0.5076,0.5071,0.5058,0.5051,0.5036,0.5043,0.5037,0.5025,0.5018,0.5002,0.502,0.4999,0.4999,0.5003,0.4972,0.4969,0.4944,0.4982,0.4981,0.4981,0,0.5132,0.5121,0.5094,0.5084,0.5078,0.5065,0.5051,0.5039,0.5028,0.5025,0.5015,0.5014,0.4996,0.5006,0.4981,0.4993,0.4985,0.498,0.4979,0.4977,0.4989,0.497,0.4936,0.4932,0.4975,0.4976,0.4976,0,0.5112,0.509,0.5071,0.5065,0.5053,0.5044,0.5038,0.5027,0.5018,0.5006,0.5,0.4985,0.4977,0.4965,0.496,0.4968,0.4935,0.4945,0.4932,0.4932,0.4925,0.4925,0.489,0.4919,0.4919,0.4919,0.4919,0,0.5083,0.5066,0.5062,0.505,0.5032,0.503,0.5011,0.5006,0.4996,0.4983,0.4984,0.4971,0.4966,0.4952,0.4948,0.4928,0.4924,0.4921,0.492,0.4921,0.4921,0.4915,0.4917,0.4918,0.4918,0.4919,0.4919,0,0.5057,0.5053,0.5033,0.5023,0.5021,0.5007,0.4998,0.4987,0.4983,0.4966,0.4962,0.4954,0.4938,0.4933,0.4912,0.491,0.4887,0.4887,0.4891,0.4891,0.4878,0.488,0.4838,0.4832,0.4865,0.4864,0.4864,0,0.5038,0.5026,0.5015,0.5007,0.5002,0.4988,0.498,0.4977,0.4968,0.4955,0.4944,0.4929,0.4916,0.489,0.4883,0.4867,0.4867,0.4854,0.4865,0.4867,0.4868,0.4869,0.4867,0.4852,0.4851,0.4851,0.4851,0,0.5006,0.5005,0.4994,0.4982,0.4972,0.4962,0.4952,0.4945,0.4941,0.493,0.4915,0.4905,0.4885,0.487,0.4854,0.4847,0.4848,0.4847,0.4844,0.4845,0.4848,0.4846,0.4886,0.4848,0.4849,0.4849,0.4849,0.4849,0.4984,0.4973,0.4964,0.4951,0.4944,0.4935,0.4924,0.4919,0.4906,0.4891,0.489,0.4873,0.4862,0.4842,0.4834,0.482,0.4824,0.4818,0.4817,0.4816,0.4815,0.485,0.4817,0.4817,0.4817,0.4817,0.4817,0,0.4952,0.4947,0.4935,0.4922,0.4912,0.4915,0.4904,0.4895,0.4881,0.4871,0.4859,0.4841,0.4826,0.4818,0.4803,0.4793,0.4793,0.4789,0.479,0.4788,0.4812,0.4817,0.479,0.479,0.479,0.479,0.479,0.479,0.4934,0.4917,0.4915,0.4893,0.4888,0.4873,0.4867,0.4858,0.485,0.4831,0.4819,0.4814,0.4805,0.4789,0.4775,0.4773,0.4768,0.4763,0.4761,0.4784,0.4787,0.4789,0.4794,0.4762,0.4762,0.4739,0.4739,0.4738]}]]